Regional Weather Roundup
Issued by NWS

Home | Current Version | Previous Version | Graphics & Text | Print | Product List | Glossary On
Versions: 1 2 3 4 5 6 7 8 9 10 11 12 13 14 15 16 17 18 19 20 21 22 23 24 25 26 27 28 29 30 31 32 33 34 35 36 37 38 39 40 41 42 43 44 45 46 47 48 49 50
000
ASUS43 KMKX 280121
RWRWI

WISCONSIN REGIONAL WEATHER ROUNDUP
NATIONAL WEATHER SERVICE MILWAUKEE/SULLIVAN WI
800 PM CDT THU APR 27 2017

NOTE: "FAIR" INDICATES FEW OR NO CLOUDS BELOW 12,000 FEET WITH NO
SIGNIFICANT WEATHER AND/OR OBSTRUCTIONS TO VISIBILITY.

WIZ001-002-006>008-014>016-023>028-280200-
NORTHWEST WISCONSIN

CITY           SKY/WX    TMP DP  RH WIND       PRES   REMARKS
SUPERIOR ARPT  CLOUDY    31  22  70 NW8       29.64R WCI  24
ASHLAND        CLOUDY    29  24  82 SW12      29.62R WCI  19
HAYWARD        CLOUDY    29  22  75 VRB5      29.64R WCI  24
SIREN          CLOUDY    30  25  82 W9        29.67R WCI  22
CUMBERLAND     CLOUDY    30  23  74 W9        29.66R WCI  22
RICE LAKE      CLOUDY    31  25  76 W9        29.68R WCI  23
CHETEK         CLOUDY    31  25  78 W8        29.67R WCI  24
LADYSMITH      CLOUDY    32  26  77 W12       29.66R WCI  23
EAU CLAIRE     CLOUDY    34  25  69 W13       29.68R WCI  25
MENOMONIE      CLOUDY    34  26  74 W10       29.69R WCI  26
NEW RICHMOND   CLOUDY    31  23  71 W10       29.69R WCI  23
OSCEOLA        CLOUDY    32  25  76 W13       29.73R WCI  22
$$

WIZ003>005-009-010-017-018-280200-
NORTH CENTRAL WISCONSIN

CITY           SKY/WX    TMP DP  RH WIND       PRES   REMARKS
MANITOWISH WTR NOT AVBL
ARBOR VITAE    CLOUDY    29  26  88 W9        29.58R WCI  21
WOODRUFF       CLOUDY    29  26  88 W9        29.58R WCI  21
RHINELANDER    MIX PCPN  30  26  85 W14       29.59R WCI  19
EAGLE RIVER    CLOUDY    28  23  81 W10       29.57R WCI  19
LAND O LAKES   CLOUDY    28  25  88 W9        29.57R WCI  20
PHILLIPS       CLOUDY    28  25  91 W6        29.60R WCI  21
TOMAHAWK       CLOUDY    29  25  86 W6        29.61R WCI  23
MEDFORD        CLOUDY    30  26  86 W8        29.63R WCI  22
MERRILL        CLOUDY    31  28  88 W7        29.62R WCI  24
$$

WIZ029-030-035-036-043>047-280200-
CENTRAL WISCONSIN

CITY           SKY/WX    TMP DP  RH WIND       PRES   REMARKS
WAUSAU         CLOUDY    32  28  85 W13       29.63R WCI  22
MOSINEE        CLOUDY    32  30  93 W12       29.65R WCI  23
MARSHFIELD     CLOUDY    33  28  81 W9        29.64R WCI  25
STEVENS POINT  CLOUDY    33  30  87 W9        29.66R WCI  26
WAUPACA        CLOUDY    40  35  82 SW9       29.66R WCI  34
WAUTOMA        CLOUDY    37  36  93 W10       29.68R WCI  30
WISC RAPIDS    LGT RAIN  35  33  92 NW8       29.67R WCI  29
CAMP DOUGLAS   CLOUDY    37  32  81 W9        29.69R WCI  31
$$

WIZ011>013-019>022-031-037>040-048>050-280200-
NORTHEAST WISCONSIN

CITY           SKY/WX    TMP DP  RH WIND       PRES   REMARKS
ANTIGO         CLOUDY    30  28  92 W14G20    29.61R WCI  20
SHAWANO        CLOUDY    38  32  78 W7        29.64R WCI  33
OCONTO         CLOUDY    38  32  79 SW8       29.62R WCI  32
STURGEON BAY   CLOUDY    39  34  82 SW9       29.64R WCI  33
GREEN BAY      CLOUDY    41  35  79 W14       29.65R
MANITOWOC      CLOUDY    42  35  76 SW8       29.67R
APPLETON       CLOUDY    39  32  75 W8        29.64R WCI  34
CLINTONVILLE   CLOUDY    36  32  87 W12       29.64R WCI  27
OSHKOSH        LGT RAIN  40  36  86 W5G17     29.66R
$$

WIZ032>034-041-042-053>061-280200-
SOUTHWEST WISCONSIN

CITY           SKY/WX    TMP DP  RH WIND       PRES   REMARKS
LA CROSSE      CLOUDY    39  30  70 W15       29.71R WCI  31
SPARTA         CLOUDY    37  32  82 W7        29.70R WCI  32
VIROQUA        CLOUDY    36  32  84 W15G24    29.70R WCI  27
BOSCOBEL       CLOUDY    41  30  65 SW10      29.74R
PRAIRIE DU CHI CLOUDY    39  29  66 W6        29.75R
PLATTEVILLE    CLOUDY    39  33  78 W14       29.75R WCI  31
$$

WIZ056-057-062-063-064-067-068-280200-
SOUTH CENTRAL WISCONSIN

CITY           SKY/WX    TMP DP  RH WIND       PRES   REMARKS
REEDSBURG      NOT AVBL
BARABOO/DELLS  CLOUDY    38  32  79 W8        29.69R WCI  32
LONE ROCK      CLOUDY    40  32  73 W16       29.73R WCI  31
MINERAL POINT  CLOUDY    39  32  75 W12       29.73R WCI  32
MADISON        CLOUDY    40  31  70 W10G20    29.71R WCI  33
MIDDLETON      CLOUDY    41  33  73 W15       29.71R
WATERTOWN      CLOUDY    40  37  89 SW12      29.70R WCI  33
MONROE         CLOUDY    39  32  75 W13       29.73R WCI  32
JANESVILLE     CLOUDY    43  34  70 W15       29.73R
$$

WIZ051-052-058>065-066-070>072-280200-
SOUTHEAST WISCONSIN

CITY           SKY/WX    TMP DP  RH WIND       PRES   REMARKS
MILWAUKEE      CLOUDY    44  36  73 SW13      29.72R
WAUKESHA       CLOUDY    39  32  75 SW15G23   29.71R WCI  31
MILWAUKEE/TIMM CLOUDY    43  34  70 SW13      29.71R
RACINE         CLOUDY    44  34  67 W14G20    29.74R
KENOSHA        CLOUDY    43  34  70 W17G23    29.73R
FOND DU LAC    LGT RAIN  41  35  79 SW10      29.68R
SHEBOYGAN      LGT RAIN  41  38  89 W6        29.67R
WEST BEND      CLOUDY    41  36  81 SW14G21   29.68R
JUNEAU         CLOUDY    40  34  79 SW14G22   29.70R WCI  32
$$

LSZ147-162-280200-
LAKE SUPERIOR

STATION/POSITION TIME  TEMP    WIND        PRES    WAVE
                       AIR SEA DIR/SP/G            HT/PER
                 (UTC) (F)     (DEG/KT/KT) (MB)    (FT/S)
DEVILS ISLAND    0000   31     280/ 15/ 17 1002.1R
PORT WING        0030   32     290/ 14/ 20 1002.7R
SAXON HARBOR     0030   30     210/  5/  8 1002.7R
$$

LMZ867-665-643>646-280200-
LAKE MICHIGAN

STATION/POSITION TIME  TEMP    WIND        PRES    WAVE
                       AIR SEA DIR/SP/G            HT/PER
                 (UTC) (F)     (DEG/KT/KT) (MB)    (FT/S)
CHAMBERS ISLAND  0040   38     210/  6/ 11 1002.7R
N MID LAKE BUOY  0050   37 37  230/ 16/ 19 1004.0R   4/ 6
NORTHPORT PIER   0040   37      CALM  /  7 1003.4R
KEWAUNEE LAKESHO 0054   42     250/  7/ 10   N/A
SHEBOYGAN LAKESH 0000   42     210/  6/  8 1004.2R
PORT WASHINGTON  0040   45     250/  9/ 17 1006.1R
MILWAUKEE LAKESH 0100   44     250/ 12/ 15   N/A
S MID LAKE BUOY  2350   43 41  250/ 14/ 17 1006.5R   3/ 5
KENOSHA   LAKESH 0000   44     230/ 13/ 18 1006.4
$$

TC  - TEMPERATURE IN CELSIUS
VSB - VISIBILITY IN STATUTE MILES
WCI - WIND CHILL INDEX
HX  - HEAT INDEX





USA.gov is the U.S. government's official web portal to all federal, state and local government web resources and services.